Current Version              Previous Version:    01  02  03  04  05  06  07  08  09  10  11  12  13  14  15  16  17  18  19  20  21  22  23  24  25  26  27  28  29  30  
   31  32  33  34  35  36  37  38  39  40  41  42  43  44  45  46  47  48  49  50  51  52  53  54  55  56  57  58  59  60  

[Printable]
043
ASUS44 KFWD 272303
RWRTX
NORTH TEXAS HOURLY WEATHER ROUNDUP
NATIONAL WEATHER SERVICE FORT WORTH TX
500 PM CST THU NOV 27 2014

NOTE: "FAIR" INDICATES FEW OR NO CLOUDS BELOW 12,000 FEET WITH NO
SIGNIFICANT WEATHER AND/OR OBSTRUCTIONS TO VISIBILITY.

TXZ118-119-280000-
DALLAS/FORT WORTH METROPLEX

CITY           SKY/WX    TMP DP  RH WIND       PRES   REMARKS
DFW AIRPORT    PTCLDY    55  21  26 VRB3      30.41F
DALLAS LOVE    PTCLDY    57  20  23 CALM      30.42S
FTW MEACHAM    CLEAR     57  22  25 E5        30.41S
DAL-EXECUTIVE  CLEAR     58  21  24 S5        30.41S
FTW-ALLIANCE   CLEAR     54  23  30 S3        30.41S
FTW-SPINKS     CLEAR     57  25  28 SE7       30.42F
ARLINGTON      CLEAR     58  21  24 E3        30.41F
GRAND PRAIRIE  CLEAR     57  25  28 CALM      30.43F
MESQUITE       CLEAR     57  19  23 CALM      30.42S
LANCASTER      CLEAR     57  21  24 CALM      30.42F
$$

TXZ091>094-102>105-117-120-121-131>134-280000-
NORTH CENTRAL TEXAS

CITY           SKY/WX    TMP DP  RH WIND       PRES   REMARKS
SHRMAN/DENISON CLEAR     55  27  34 SE5       30.42F
BRIDGEPORT     CLEAR     57  28  33 SE5       30.42S
DECATUR        CLEAR     54  21  28 SE6       30.40F
DENTON         CLEAR     53  22  29 S5        30.41F
MCKINNEY       CLEAR     55  22  27 S6        30.41F
ROCKWALL       CLEAR     57  24  27 SW3       30.41S
TERRELL        CLEAR     59  24  26 SE3       30.42S
WAXAHACHIE     CLEAR     57  28  32 CALM      30.43S
CLEBURNE       CLEAR     57  23  26 SE3       30.42S
GRANBURY       CLEAR     59  26  28 SE5       30.42S
$$

TXZ083>090-098>101-113>116-127>130-139>142-154-155-280000-
WESTERN NORTH TEXAS

CITY           SKY/WX    TMP DP  RH WIND       PRES   REMARKS
WICHITA FALLS  CLEAR     54  25  32 S10       30.36F
WF-KICKAPOO    CLEAR     55  25  30 S8        30.38F
ABILENE        CLEAR     58  31  35 S13       30.36F
ABILENE-DYESS  CLEAR     59  33  37 S12       30.35S
MINERAL WELLS  CLEAR     56  26  31 SE7       30.38F
STEPHENVILLE   CLEAR     58  24  26 SE6       30.41F
COMANCHE       CLEAR     58  31  35 SE5       30.39F
COLEMAN        CLEAR     57  38  48 S8        30.38F
$$

TXZ143>147-156>162-174-175-280000-
CENTRAL TEXAS

CITY           SKY/WX    TMP DP  RH WIND       PRES   REMARKS
WACO           CLEAR     57  27  31 S5        30.41F
WACO-MCGREGOR  CLEAR     61  25  25 SE5       30.42F
CORSICANA      CLEAR     59  25  27 CALM      30.43S
MEXIA          CLEAR     60  27  28 CALM      30.41F
HEARNE         CLEAR     61  31  31 CALM      30.42F
CAMERON        CLEAR     62  29  28 CALM      30.41F
TEMPLE         CLEAR     57  27  30 E6        30.40F
KILLEEN        CLEAR     58  26  29 SE6       30.40F
KILLEEN-SKYLRK CLEAR     59  27  29 SE7       30.39S
FORT HOOD      CLEAR     61  27  27 SE7       30.40F
GATESVILLE     CLEAR     59  28  31 CALM      30.42F
HAMILTON       CLEAR     58  24  27 SE6       30.40F
LAMPASAS       CLEAR     58  29  33 SE3       30.39F
$$

TXZ095>097-106>112-122>126-135>138-148>153-164>167-280000-
EAST TEXAS

CITY           SKY/WX    TMP DP  RH WIND       PRES   REMARKS
PARIS          CLEAR     52  21  30 SE6       30.43F
SULPHUR SPRNGS CLEAR     56  17  21 SE3       30.44F
MOUNT PLEASANT CLEAR     54  24  32 CALM      30.45S
MINEOLA        CLEAR     57  16  19 CALM      30.43S
TYLER          CLEAR     59  23  25 E5        30.41F
LONGVIEW       CLEAR     55  31  39 SE3       30.43S
MARSHALL       CLEAR     56  26  32 CALM      30.47R
ATHENS         CLEAR     57  27  30 SE3       30.41S
PALESTINE      CLEAR     61  29  30 CALM      30.43S HAZE
JACKSONVILLE   CLEAR     59  24  26 CALM      30.43F
HENDERSON      CLEAR     56  28  33 E3        30.44S
NACOGDOCHES    CLEAR     57  32  38 CALM      30.44S
LUFKIN         CLEAR     60  33  36 E5        30.42S
$$

SUPPLEMENTAL OBSERVATIONS (CENTRAL)

CITY           SKY/WX    TMP DP  RH WIND       PRES   REMARKS
$$

SUPPLEMENTAL OBSERVATIONS (WEST)

CITY           SKY/WX    TMP DP  RH WIND       PRES   REMARKS
$$

SUPPLEMENTAL OBSERVATIONS (EAST)

CITY           SKY/WX    TMP DP  RH WIND       PRES   REMARKS
$$

SUPPLEMENTAL OBSERVATIONS ARE A COLLECTION OF AUTOMATED INSTRUMENTS
THAT ARE MAINTAINED BY A VARIETY OF FEDERAL AND STATE AGENCIES.
CERTAIN ELEMENTS...SUCH AS HUMIDITY VALUES AND SUSTAINED WIND
SPEEDS...MAY BE APPROXIMATED.